Location: Sunny Point
(33.0946°N, 85.0574°W)
Time: 07:17:22
(UTC+00:00)

Envisat - Pass Details

Date: 22 May 2024
Orbit: 762 x 764 km, 98.3° (Epoch: 20 June)

Event Time Altitude Azimuth Distance (km) Brightness Sun altitude
Rises 08:53:29 0° 12° (NNE) 3,230 7.1 -18.8°
Reaches altitude 10° 08:55:48 10° 13° (NNE) 2,300 6.2 -18.4°
Maximum altitude 09:00:52 89° 101° (E) 767 2.9 -17.6°
Enters shadow 09:04:14 22° 193° (SSW) 1,630 4.2 -17.1°
